Time,TemperatureF,DewpointF,PressureIn,WindDirection,WindDirectionDegrees,WindSpeedMPH,WindSpeedGustMPH,Humidity,HourlyPrecipIn,Conditions,Clouds,dailyrainin,SolarRadiationWatts/m^2,SoftwareType,DateUTC
2013-09-27 00:22:00,34.0,31.0,-100.00,ENE,68,4.0,6.0,87,0.00,,,0.00,0.000000,,2013-09-27 07:22:00,
2013-09-27 00:32:00,34.0,31.0,-100.00,ENE,68,4.0,6.0,87,0.00,,,0.00,0.000000,,2013-09-27 07:32:00,
2013-09-27 00:43:00,34.0,31.0,-100.00,ENE,68,4.0,6.0,87,0.00,,,0.00,0.000000,,2013-09-27 07:43:00,
2013-09-27 00:53:00,34.0,31.0,-100.00,ENE,68,4.0,6.0,87,0.00,,,0.00,0.000000,,2013-09-27 07:53:00,
2013-09-27 01:22:00,32.0,29.0,-100.00,East,81,4.0,5.0,89,0.00,,,0.00,0.000000,,2013-09-27 08:22:00,
2013-09-27 01:32:00,32.0,29.0,-100.00,East,81,4.0,5.0,89,0.00,,,0.00,0.000000,,2013-09-27 08:32:00,
2013-09-27 01:42:00,32.0,29.0,-100.00,East,81,4.0,5.0,89,0.00,,,0.00,0.000000,,2013-09-27 08:42:00,
2013-09-27 01:52:00,32.0,29.0,-100.00,East,81,4.0,5.0,89,0.00,,,0.00,0.000000,,2013-09-27 08:52:00,
2013-09-27 02:22:00,31.0,29.0,-100.00,NE,56,4.0,6.0,93,0.00,,,0.00,0.000000,,2013-09-27 09:22:00,
2013-09-27 02:33:00,31.0,29.0,-100.00,NE,56,4.0,6.0,93,0.00,,,0.00,0.000000,,2013-09-27 09:33:00,
2013-09-27 02:44:00,31.0,29.0,-100.00,NE,56,4.0,6.0,93,0.00,,,0.00,0.000000,,2013-09-27 09:44:00,
2013-09-27 02:53:00,31.0,29.0,-100.00,NE,56,4.0,6.0,93,0.00,,,0.00,0.000000,,2013-09-27 09:53:00,
2013-09-27 03:23:00,29.0,28.0,-100.00,ENE,77,5.0,6.0,95,0.00,,,0.00,0.000000,,2013-09-27 10:23:00,
2013-09-27 03:33:00,29.0,28.0,-100.00,ENE,77,5.0,6.0,95,0.00,,,0.00,0.000000,,2013-09-27 10:33:00,
2013-09-27 03:42:00,29.0,28.0,-100.00,ENE,77,5.0,6.0,95,0.00,,,0.00,0.000000,,2013-09-27 10:42:00,
2013-09-27 03:52:00,29.0,28.0,-100.00,ENE,77,5.0,6.0,95,0.00,,,0.00,0.000000,,2013-09-27 10:52:00,
2013-09-27 04:22:00,28.0,27.0,-100.00,East,82,5.0,6.0,95,0.00,,,0.00,0.000000,,2013-09-27 11:22:00,
2013-09-27 04:33:00,28.0,27.0,-100.00,East,82,5.0,6.0,95,0.00,,,0.00,0.000000,,2013-09-27 11:33:00,
2013-09-27 04:42:00,28.0,27.0,-100.00,East,82,5.0,6.0,95,0.00,,,0.00,0.000000,,2013-09-27 11:42:00,
2013-09-27 04:52:00,28.0,27.0,-100.00,East,82,5.0,6.0,95,0.00,,,0.00,0.000000,,2013-09-27 11:52:00,
2013-09-27 05:21:00,28.0,27.0,-100.00,ENE,62,6.0,8.0,97,0.00,,,0.00,0.000000,,2013-09-27 12:21:00,
2013-09-27 05:32:00,28.0,27.0,-100.00,ENE,62,6.0,8.0,97,0.00,,,0.00,0.000000,,2013-09-27 12:32:00,
2013-09-27 05:42:00,28.0,27.0,-100.00,ENE,62,6.0,8.0,97,0.00,,,0.00,0.000000,,2013-09-27 12:42:00,
2013-09-27 05:52:00,28.0,27.0,-100.00,ENE,62,6.0,8.0,97,0.00,,,0.00,0.000000,,2013-09-27 12:52:00,
2013-09-27 06:21:00,28.0,27.0,-100.00,NE,53,6.0,7.0,97,0.00,,,0.00,0.000000,,2013-09-27 13:21:00,
2013-09-27 06:32:00,28.0,27.0,-100.00,NE,53,6.0,7.0,97,0.00,,,0.00,0.000000,,2013-09-27 13:32:00,
2013-09-27 06:42:00,28.0,27.0,-100.00,NE,53,6.0,7.0,97,0.00,,,0.00,0.000000,,2013-09-27 13:42:00,
2013-09-27 06:52:00,28.0,27.0,-100.00,NE,53,6.0,7.0,97,0.00,,,0.00,0.000000,,2013-09-27 13:52:00,
2013-09-27 07:21:00,27.0,26.0,-100.00,East,84,2.0,8.0,97,0.00,,,0.00,0.000000,,2013-09-27 14:21:00,
2013-09-27 07:32:00,27.0,26.0,-100.00,East,84,2.0,8.0,97,0.00,,,0.00,0.000000,,2013-09-27 14:32:00,
2013-09-27 07:42:00,27.0,26.0,-100.00,East,84,2.0,8.0,97,0.00,,,0.00,0.000000,,2013-09-27 14:42:00,
2013-09-27 07:52:00,27.0,26.0,-100.00,East,84,2.0,8.0,97,0.00,,,0.00,0.000000,,2013-09-27 14:52:00,
2013-09-27 08:21:00,29.0,28.0,-100.00,East,81,4.0,6.0,97,0.00,,,0.00,16.000000,,2013-09-27 15:21:00,
2013-09-27 08:33:00,29.0,28.0,-100.00,East,81,4.0,6.0,97,0.00,,,0.00,16.000000,,2013-09-27 15:33:00,
2013-09-27 08:44:00,29.0,28.0,-100.00,East,81,4.0,6.0,97,0.00,,,0.00,16.000000,,2013-09-27 15:44:00,
2013-09-27 08:54:00,29.0,28.0,-100.00,East,81,4.0,6.0,97,0.00,,,0.00,16.000000,,2013-09-27 15:54:00,
2013-09-27 09:24:00,37.0,31.0,-100.00,ENE,69,3.0,6.0,80,0.00,,,0.00,237.000000,,2013-09-27 16:24:00,
2013-09-27 09:34:00,37.0,31.0,-100.00,ENE,69,3.0,6.0,80,0.00,,,0.00,237.000000,,2013-09-27 16:34:00,
2013-09-27 09:44:00,37.0,31.0,-100.00,ENE,69,3.0,6.0,80,0.00,,,0.00,237.000000,,2013-09-27 16:44:00,
2013-09-27 09:53:00,37.0,31.0,-100.00,ENE,69,3.0,6.0,80,0.00,,,0.00,237.000000,,2013-09-27 16:53:00,
2013-09-27 10:43:00,44.0,33.0,-100.00,ESE,107,1.0,4.0,65,0.00,,,0.00,428.000000,,2013-09-27 17:43:00,
2013-09-27 10:52:00,44.0,33.0,-100.00,ESE,107,1.0,4.0,65,0.00,,,0.00,428.000000,,2013-09-27 17:52:00,
2013-09-27 11:21:00,48.0,35.0,-100.00,West,281,5.0,9.0,60,0.00,,,0.00,629.000000,,2013-09-27 18:21:00,
2013-09-27 11:33:00,48.0,35.0,-100.00,West,281,5.0,9.0,60,0.00,,,0.00,629.000000,,2013-09-27 18:33:00,
2013-09-27 11:43:00,48.0,35.0,-100.00,West,281,5.0,9.0,60,0.00,,,0.00,629.000000,,2013-09-27 18:43:00,
2013-09-27 11:52:00,48.0,35.0,-100.00,West,281,5.0,9.0,60,0.00,,,0.00,629.000000,,2013-09-27 18:52:00,
2013-09-27 12:22:00,52.0,34.0,-100.00,SSW,202,7.0,11.0,50,0.00,,,0.00,768.000000,,2013-09-27 19:22:00,
2013-09-27 12:32:00,52.0,34.0,-100.00,SSW,202,7.0,11.0,50,0.00,,,0.00,768.000000,,2013-09-27 19:32:00,
2013-09-27 12:42:00,52.0,34.0,-100.00,SSW,202,7.0,11.0,50,0.00,,,0.00,768.000000,,2013-09-27 19:42:00,
2013-09-27 12:53:00,52.0,34.0,-100.00,SSW,202,7.0,11.0,50,0.00,,,0.00,768.000000,,2013-09-27 19:53:00,
2013-09-27 13:22:00,56.0,32.0,-100.00,WSW,241,8.0,14.0,40,0.00,,,0.00,830.000000,,2013-09-27 20:22:00,
2013-09-27 13:32:00,56.0,32.0,-100.00,WSW,241,8.0,14.0,40,0.00,,,0.00,830.000000,,2013-09-27 20:32:00,
2013-09-27 13:42:00,56.0,32.0,-100.00,WSW,241,8.0,14.0,40,0.00,,,0.00,830.000000,,2013-09-27 20:42:00,
2013-09-27 13:52:00,56.0,32.0,-100.00,WSW,241,8.0,14.0,40,0.00,,,0.00,830.000000,,2013-09-27 20:52:00,
2013-09-27 14:21:00,59.0,31.0,-100.00,SW,225,7.0,14.0,34,0.00,,,0.00,832.000000,,2013-09-27 21:21:00,
2013-09-27 14:33:00,59.0,31.0,-100.00,SW,225,7.0,14.0,34,0.00,,,0.00,832.000000,,2013-09-27 21:33:00,
2013-09-27 14:44:00,59.0,31.0,-100.00,SW,225,7.0,14.0,34,0.00,,,0.00,832.000000,,2013-09-27 21:44:00,
2013-09-27 14:54:00,59.0,31.0,-100.00,SW,225,7.0,14.0,34,0.00,,,0.00,832.000000,,2013-09-27 21:54:00,
2013-09-27 15:24:00,61.0,27.0,-100.00,SW,228,8.0,15.0,27,0.00,,,0.00,792.000000,,2013-09-27 22:24:00,
2013-09-27 15:34:00,61.0,27.0,-100.00,SW,228,8.0,15.0,27,0.00,,,0.00,792.000000,,2013-09-27 22:34:00,
2013-09-27 15:43:00,61.0,27.0,-100.00,SW,228,8.0,15.0,27,0.00,,,0.00,792.000000,,2013-09-27 22:43:00,
2013-09-27 15:53:00,61.0,27.0,-100.00,SW,228,8.0,15.0,27,0.00,,,0.00,792.000000,,2013-09-27 22:53:00,
2013-09-27 16:22:00,58.0,29.0,-100.00,SW,230,6.0,13.0,33,0.00,,,0.00,522.000000,,2013-09-27 23:22:00,
2013-09-27 16:34:00,58.0,29.0,-100.00,SW,230,6.0,13.0,33,0.00,,,0.00,522.000000,,2013-09-27 23:34:00,
2013-09-27 16:43:00,58.0,29.0,-100.00,SW,230,6.0,13.0,33,0.00,,,0.00,522.000000,,2013-09-27 23:43:00,
2013-09-27 16:53:00,58.0,29.0,-100.00,SW,230,6.0,13.0,33,0.00,,,0.00,522.000000,,2013-09-27 23:53:00,
2013-09-27 17:22:00,56.0,28.0,-100.00,West,271,9.0,16.0,34,0.00,,,0.00,250.000000,,2013-09-28 00:22:00,
2013-09-27 17:32:00,56.0,28.0,-100.00,West,271,9.0,16.0,34,0.00,,,0.00,250.000000,,2013-09-28 00:32:00,
2013-09-27 17:42:00,56.0,28.0,-100.00,West,271,9.0,16.0,34,0.00,,,0.00,250.000000,,2013-09-28 00:42:00,
2013-09-27 17:52:00,56.0,28.0,-100.00,West,271,9.0,16.0,34,0.00,,,0.00,250.000000,,2013-09-28 00:52:00,
2013-09-27 18:21:00,53.0,21.0,-100.00,West,277,8.0,14.0,28,0.00,,,0.00,85.000000,,2013-09-28 01:21:00,
2013-09-27 18:32:00,53.0,21.0,-100.00,West,277,8.0,14.0,28,0.00,,,0.00,85.000000,,2013-09-28 01:32:00,
2013-09-27 18:42:00,53.0,21.0,-100.00,West,277,8.0,14.0,28,0.00,,,0.00,85.000000,,2013-09-28 01:42:00,
2013-09-27 18:52:00,53.0,21.0,-100.00,West,277,8.0,14.0,28,0.00,,,0.00,85.000000,,2013-09-28 01:52:00,
2013-09-27 19:22:00,52.0,21.0,-100.00,West,276,11.0,17.0,29,0.00,,,0.00,19.000000,,2013-09-28 02:22:00,
2013-09-27 19:32:00,52.0,21.0,-100.00,West,276,11.0,17.0,29,0.00,,,0.00,19.000000,,2013-09-28 02:32:00,
2013-09-27 19:42:00,52.0,21.0,-100.00,West,276,11.0,17.0,29,0.00,,,0.00,19.000000,,2013-09-28 02:42:00,
2013-09-27 19:53:00,52.0,21.0,-100.00,West,276,11.0,17.0,29,0.00,,,0.00,19.000000,,2013-09-28 02:53:00,
2013-09-27 20:22:00,50.0,21.0,-100.00,WNW,290,10.0,15.0,32,0.00,,,0.00,0.000000,,2013-09-28 03:22:00,
2013-09-27 20:34:00,50.0,21.0,-100.00,WNW,290,10.0,15.0,32,0.00,,,0.00,0.000000,,2013-09-28 03:34:00,
2013-09-27 20:45:00,50.0,21.0,-100.00,WNW,290,10.0,15.0,32,0.00,,,0.00,0.000000,,2013-09-28 03:45:00,
2013-09-27 20:55:00,50.0,21.0,-100.00,WNW,290,10.0,15.0,32,0.00,,,0.00,0.000000,,2013-09-28 03:55:00,
2013-09-27 21:25:00,49.0,30.0,-100.00,West,268,7.0,12.0,48,0.00,,,0.00,0.000000,,2013-09-28 04:25:00,
2013-09-27 21:34:00,49.0,30.0,-100.00,West,268,7.0,12.0,48,0.00,,,0.00,0.000000,,2013-09-28 04:34:00,
2013-09-27 21:43:00,49.0,30.0,-100.00,West,268,7.0,12.0,48,0.00,,,0.00,0.000000,,2013-09-28 04:43:00,
2013-09-27 21:54:00,49.0,30.0,-100.00,West,268,7.0,12.0,48,0.00,,,0.00,0.000000,,2013-09-28 04:54:00,
2013-09-27 22:22:00,48.0,33.0,-100.00,SW,227,3.0,10.0,55,0.00,,,0.00,0.000000,,2013-09-28 05:22:00,
2013-09-27 22:34:00,48.0,33.0,-100.00,SW,227,3.0,10.0,55,0.00,,,0.00,0.000000,,2013-09-28 05:34:00,
2013-09-27 22:43:00,48.0,33.0,-100.00,SW,227,3.0,10.0,55,0.00,,,0.00,0.000000,,2013-09-28 05:43:00,
2013-09-27 22:52:00,48.0,33.0,-100.00,SW,227,3.0,10.0,55,0.00,,,0.00,0.000000,,2013-09-28 05:52:00,
2013-09-27 23:22:00,47.0,35.0,-100.00,WSW,239,4.0,8.0,62,0.00,,,0.00,0.000000,,2013-09-28 06:22:00,
2013-09-27 23:32:00,47.0,35.0,-100.00,WSW,239,4.0,8.0,62,0.00,,,0.00,0.000000,,2013-09-28 06:32:00,
2013-09-27 23:42:00,47.0,35.0,-100.00,WSW,239,4.0,8.0,62,0.00,,,0.00,0.000000,,2013-09-28 06:42:00,
2013-09-27 23:52:00,47.0,35.0,-100.00,WSW,239,4.0,8.0,62,0.00,,,0.00,0.000000,,2013-09-28 06:52:00,